Wind_Speed
12 12 10 10 9 13 23 21 17 17 21 19 14 13 12 10 10 5 11 10 14 8 4 6 9 15 17 17 16 14 12 11 10 11 11 12 13 15 16 17 19 21 22 22 24 25 26 25 26
12 13 11 8 15 23 22 19 20 14 18 17 14 14 13 15 9 10 8 11 17 9 7 5 10 15 16 15 14 13 11 10 8 9 8 8 8 9 10 11 12 13 15 16 17 19 20 23 23
11 13 9 12 24 27 21 21 15 17 12 13 14 15 13 15 15 6 13 14 14 9 6 7 9 13 13 12 10 10 9 7 6 5 5 5 5 6 7 7 9 10 11 12 13 14 15 17 20
9 12 16 19 24 25 24 6 17 18 14 16 16 14 14 17 12 15 15 18 14 9 8 8 9 10 10 9 8 6 6 4 2 2 4 5 6 7 8 8 8 9 10 10 12 13 14 15 15
12 12 20 23 25 23 22 13 13 15 15 18 19 17 15 18 12 21 17 21 14 10 9 9 8 8 8 6 5 3 3 3 1 3 4 6 8 9 10 11 11 11 11 11 12 14 15 15 15
12 12 21 25 26 24 23 20 19 18 17 17 20 19 17 17 23 21 22 24 15 10 9 13 7 6 6 4 2 1 3 4 6 8 9 10 10 13 13 13 13 14 15 14 14 15 16 16 16
19 20 26 27 26 24 24 22 22 21 20 20 21 22 18 18 18 23 21 18 15 12 9 13 10 6 5 6 6 5 5 7 9 11 13 14 14 16 17 17 17 17 17 17 17 17 18 19 19
22 22 29 30 28 29 22 21 23 22 21 19 19 24 21 16 22 23 20 18 16 14 13 15 12 7 6 6 7 9 10 10 10 12 15 18 20 21 20 20 20 19 19 21 21 21 20 21 22
22 29 34 31 29 28 22 25 22 22 22 18 21 11 14 21 20 23 21 19 17 15 17 18 17 13 11 11 12 12 12 13 12 13 15 19 21 23 22 22 24 23 22 23 22 23 20 21 23
33 34 38 30 26 26 25 24 21 22 26 21 23 18 17 24 21 23 22 20 17 16 17 21 21 19 18 18 20 16 17 18 18 17 16 21 23 26 27 25 27 27 22 25 25 24 24 23 21
36 47 36 33 28 27 28 26 24 26 29 28 25 21 16 18 20 21 21 19 16 17 15 16 25 25 24 25 26 25 24 23 23 22 22 24 27 29 28 30 28 28 25 26 24 30 28 24 22
35 44 41 39 33 26 33 28 29 31 31 26 28 23 23 18 20 24 23 21 19 16 15 17 26 24 26 28 29 28 27 27 25 26 26 29 29 30 30 30 31 28 29 31 32 29 19 21 23
44 42 41 38 31 34 27 35 34 32 32 30 29 28 23 23 22 22 22 24 29 31 26 24 27 29 27 29 31 33 31 30 26 26 31 33 36 35 32 32 33 31 32 31 34 28 27 26 28
35 40 44 39 37 36 40 39 31 40 33 36 35 35 33 32 29 26 27 27 28 29 27 32 34 42 40 37 38 35 34 31 30 32 32 33 37 38 34 33 32 34 33 32 33 32 32 28 28
34 39 38 41 40 45 36 41 43 45 35 37 39 38 37 35 32 29 27 36 41 42 40 37 35 35 38 36 39 36 35 33 32 35 34 37 34 33 33 33 33 34 35 34 35 34 32 32 30
20 30 42 52 40 40 39 55 50 42 40 42 40 39 39 38 37 34 31 33 34 43 46 42 40 38 39 37 40 41 38 38 36 34 38 35 35 33 34 33 36 34 36 35 34 31 35 33 33
34 43 41 45 40 41 40 50 54 48 42 40 43 44 43 41 41 40 37 35 37 45 47 49 44 44 44 43 40 42 42 41 37 35 36 36 34 34 35 37 35 33 34 33 29 35 34 31 33
36 36 41 45 39 36 43 51 49 44 44 45 45 42 43 45 43 40 37 38 46 48 50 47 45 44 45 46 44 41 43 41 37 37 38 35 33 32 35 40 34 30 29 28 31 33 28 28 25
33 38 42 40 36 37 43 44 54 47 40 39 43 43 49 51 44 37 35 33 49 56 57 56 52 50 48 47 45 46 44 39 39 34 36 35 35 38 37 34 33 30 26 28 27 26 24 16 31
30 34 42 42 37 31 37 42 51 42 45 44 42 44 42 36 39 41 40 46 60 62 61 57 55 51 44 42 39 38 41 41 36 34 33 33 36 35 30 28 31 26 26 26 27 28 24 32 33
26 32 35 36 35 36 37 43 45 46 41 41 43 43 43 43 44 45 47 54 57 59 62 59 51 45 41 39 38 36 36 34 36 33 29 32 27 23 23 26 28 26 26 26 27 27 28 28 28
28 25 29 35 31 37 40 29 41 38 41 41 39 39 39 41 41 44 45 44 46 48 42 45 44 41 41 39 37 33 32 32 31 31 33 28 27 26 26 26 26 25 25 29 26 27 26 27 27
29 25 27 30 37 35 43 38 41 31 37 37 35 36 37 39 39 39 38 36 35 32 36 41 39 36 36 35 32 33 31 27 29 31 30 30 29 28 27 26 24 24 25 26 26 25 25 26 28
20 23 26 29 34 30 39 44 44 40 34 29 29 32 32 32 31 32 31 29 29 31 34 34 33 34 29 29 28 32 32 32 34 32 29 29 30 28 27 25 24 24 25 24 24 24 24 26 27
20 19 18 20 22 20 37 41 35 40 36 31 31 30 26 23 27 24 26 28 24 29 31 30 32 30 25 23 27 33 36 35 35 33 32 31 29 26 25 25 24 24 23 23 22 24 26 26 24
22 26 21 17 16 20 39 37 39 34 30 16 17 20 19 21 20 19 20 21 21 22 21 21 24 31 29 26 29 32 34 35 34 32 30 27 25 25 25 23 23 23 21 21 24 25 24 22 18
22 29 28 31 37 26 35 38 46 32 24 22 14 12 14 17 18 18 17 20 20 18 20 18 19 22 23 23 24 24 26 29 27 23 22 22 24 23 22 22 21 19 20 21 23 23 17 16 15
24 21 20 14 19 23 23 31 35 42 31 20 14 10 10 14 14 14 16 17 22 18 18 17 17 18 20 21 20 20 19 17 16 19 21 22 21 20 20 17 18 19 21 21 18 17 15 14 13
11 17 18 14 23 12 16 17 24 38 40 25 12 7 8 10 7 13 18 18 19 19 19 19 18 19 18 18 17 15 15 17 18 19 20 19 18 17 17 16 18 18 17 15 13 14 12 12 13
15 13 20 8 16 32 19 28 11 17 34 24 8 1 7 10 24 22 20 16 17 20 21 19 21 19 16 15 15 15 16 16 16 16 16 15 16 16 16 15 14 13 13 12 11 11 12 12 12
Wind_Direction
222 219 211 204 214 231 237 235 228 223 210 211 206 204 208 221 203 183 159 213 237 207 185 114 97 103 104 102 96 100 97 85 73 63 54 49 48 49 50 50 48 48 48 47 45 42 40 37 39
221 215 208 201 232 234 234 227 218 218 219 205 211 203 199 196 184 221 244 220 214 190 147 115 97 108 103 98 99 104 100 89 79 65 53 42 37 34 30 37 39 40 41 42 40 38 34 33 31
234 211 213 236 232 238 241 218 216 204 192 202 200 195 199 190 208 208 234 224 209 188 159 155 111 114 106 97 106 102 101 89 75 54 33 9 0 7 3 6 10 14 16 16 22 22 26 27 29
224 222 220 232 238 234 240 240 211 205 222 205 197 197 194 201 209 207 215 209 199 177 174 170 132 126 111 97 101 110 111 103 76 13 346 335 328 330 332 332 337 342 344 348 354 358 2 8 13
232 208 238 242 240 239 236 226 220 213 217 209 202 205 211 207 176 208 218 206 202 180 178 181 153 142 140 111 101 128 153 173 230 285 299 304 308 309 312 312 314 317 317 325 331 337 340 346 353
234 230 239 241 244 240 234 232 228 222 219 217 214 210 217 228 212 204 208 209 213 202 187 189 174 160 173 178 116 171 230 242 258 273 283 287 293 296 296 297 300 301 304 308 312 317 323 329 333
228 236 246 249 249 244 237 235 233 230 227 222 215 219 218 220 203 183 188 190 196 217 211 203 201 191 194 220 239 260 268 269 268 274 280 283 286 290 291 293 293 293 296 301 302 307 312 317 321
232 240 251 248 249 251 241 235 233 228 226 227 223 219 213 203 187 185 192 197 202 208 220 213 213 210 220 239 256 262 267 267 277 278 279 277 276 276 285 290 291 292 296 297 299 301 305 311 313
233 239 246 248 247 249 247 241 232 230 226 229 213 234 190 179 186 191 195 204 209 216 216 219 224 221 228 241 253 261 265 261 266 280 285 289 288 287 285 285 287 287 290 293 295 294 300 305 311
223 235 242 246 250 252 251 240 232 228 225 227 207 224 197 204 192 195 205 211 214 222 226 233 239 240 243 250 255 259 268 269 264 265 277 284 286 285 285 283 283 283 286 290 292 296 298 303 310
228 237 243 249 250 251 250 246 241 229 227 221 216 226 210 188 193 207 214 219 231 230 230 240 242 242 250 253 262 264 261 262 262 259 268 282 278 282 283 282 280 283 281 284 281 286 293 284 289
239 242 244 245 246 254 247 246 240 235 231 222 228 226 222 203 198 194 198 209 219 227 235 254 246 243 250 256 259 265 263 266 267 263 274 272 271 277 280 280 280 275 278 283 283 286 286 288 293
238 243 246 249 250 246 248 244 245 238 233 231 225 229 220 219 216 222 230 234 212 218 227 242 256 253 251 259 263 266 263 265 265 268 274 272 272 272 277 274 278 278 277 278 281 283 278 288 297
243 251 250 250 247 247 244 244 245 242 234 236 234 235 238 238 230 230 238 239 242 235 244 263 268 265 259 262 260 260 260 260 267 280 287 283 276 275 275 272 276 276 273 267 276 276 277 286 286
247 250 248 245 245 239 240 251 240 244 240 240 238 238 238 238 235 243 250 248 247 250 258 268 275 270 264 262 256 257 254 261 270 279 283 281 274 276 271 274 276 273 270 264 272 274 275 275 283
252 247 248 243 237 240 236 249 245 243 244 242 241 239 241 239 241 247 255 262 268 262 264 271 275 273 272 268 258 257 260 262 271 275 278 277 277 271 266 272 272 274 269 269 270 284 277 281 275
245 245 242 255 242 243 237 247 247 247 244 247 245 244 245 246 246 251 257 263 254 263 270 272 273 271 270 273 270 262 260 262 269 276 270 272 271 267 266 266 272 277 269 265 270 285 289 274 274
244 247 252 254 248 242 240 244 251 246 247 247 247 244 247 248 250 253 254 247 252 266 269 271 274 269 271 270 268 264 262 264 268 271 264 267 268 267 265 265 267 277 270 261 276 276 276 278 282
261 260 262 255 254 246 246 244 248 248 247 245 239 248 248 249 250 249 248 250 258 260 265 272 272 270 271 268 267 265 263 267 268 268 256 263 270 270 272 265 265 273 263 260 269 269 277 275 274
263 262 258 258 253 257 250 248 248 247 245 246 246 245 244 245 243 244 248 251 258 263 265 267 270 271 269 268 269 266 259 261 264 255 255 264 269 274 271 265 268 261 257 261 271 276 267 270 275
268 261 263 263 259 250 254 255 252 245 245 243 246 247 247 247 249 251 251 255 262 263 263 269 269 265 265 265 266 258 249 251 252 250 258 266 271 266 265 268 266 255 259 268 275 274 267 265 275
271 268 265 259 259 255 241 257 248 247 244 245 245 245 245 245 247 253 259 262 262 262 262 263 265 263 261 261 257 254 247 250 252 255 263 261 262 262 263 266 263 261 262 269 271 270 265 270 272
268 273 263 260 252 256 249 255 252 245 246 248 249 251 254 254 253 254 255 255 258 264 264 263 261 258 255 259 254 241 241 248 250 254 258 257 261 263 265 264 267 264 263 267 269 268 265 269 267
268 272 262 261 252 249 249 246 248 243 247 253 249 246 250 250 252 252 254 252 248 257 258 254 252 248 250 255 246 234 242 249 256 255 256 260 262 261 264 269 265 263 261 267 272 266 264 264 267
251 261 262 250 244 249 250 250 242 246 246 265 248 243 241 242 244 248 245 239 251 250 250 249 242 235 245 242 234 236 242 249 254 257 257 255 256 259 265 268 266 260 260 265 261 267 266 267 266
252 248 255 264 254 250 238 248 248 237 231 240 272 245 233 235 251 251 247 233 230 242 255 244 235 229 236 232 240 244 246 247 251 253 252 247 251 258 261 259 256 259 258 260 265 266 266 267 258
261 250 253 264 270 274 279 268 232 237 227 233 231 221 230 244 248 244 233 230 225 221 230 222 219 219 222 226 228 234 237 240 245 242 235 244 254 260 258 255 255 250 259 263 266 264 257 257 243
247 254 245 227 255 260 261 261 226 215 216 214 206 236 261 260 249 234 217 205 203 206 207 205 194 201 214 219 220 221 221 223 226 234 244 250 252 252 252 244 248 254 261 263 258 257 248 240 243
243 254 254 272 252 266 258 297 231 209 213 203 213 252 282 252 202 189 197 193 196 199 196 190 201 200 197 203 205 209 225 229 233 240 245 244 243 246 245 249 256 256 256 254 247 244 244 244 241
260 231 245 231 264 241 276 271 306 152 161 170 168 262 320 231 209 208 189 171 176 187 187 191 190 188 192 204 212 221 224 231 233 231 232 236 241 248 253 251 248 248 246 241 234 244 247 247 252
Height
3150 3152 3154 3158 3165 3158 3151 3149 3147 3148 3150 3151 3153 3155 3157 3158 3161 3164 3161 3161 3163 3165 3165 3164 3163 3164 3165 3165 3165 3166 3166 3166 3166 3165 3165 3165 3166 3165 3166 3165 3164 3164 3163 3163 3162 3161 3160 3158 3157
3149 3151 3154 3157 3158 3150 3146 3145 3146 3149 3150 3152 3153 3155 3156 3159 3160 3157 3159 3160 3161 3163 3164 3164 3163 3164 3164 3165 3165 3165 3166 3166 3166 3165 3165 3166 3166 3166 3166 3166 3166 3166 3166 3165 3164 3163 3162 3161 3159
3148 3149 3155 3155 3152 3146 3141 3141 3145 3148 3148 3151 3153 3154 3156 3158 3157 3158 3156 3159 3161 3162 3163 3163 3163 3164 3164 3164 3165 3165 3165 3166 3166 3166 3166 3166 3167 3166 3166 3166 3166 3166 3166 3166 3165 3164 3163 3162 3161
3147 3150 3151 3148 3144 3144 3140 3142 3144 3145 3149 3150 3152 3153 3154 3153 3155 3156 3156 3158 3159 3161 3162 3163 3162 3163 3163 3163 3163 3164 3164 3165 3166 3166 3167 3167 3167 3166 3166 3166 3166 3165 3165 3165 3164 3164 3163 3162 3161
3144 3148 3149 3145 3142 3141 3142 3143 3143 3146 3148 3148 3150 3151 3152 3151 3154 3152 3154 3157 3158 3159 3160 3161 3162 3161 3162 3162 3162 3162 3163 3164 3165 3166 3166 3166 3166 3166 3165 3165 3165 3164 3164 3163 3162 3161 3161 3161 3160
3145 3147 3145 3141 3139 3141 3140 3142 3144 3145 3146 3147 3148 3150 3151 3148 3151 3150 3152 3154 3156 3157 3159 3159 3160 3161 3160 3161 3161 3162 3163 3163 3164 3165 3165 3165 3164 3164 3163 3163 3163 3163 3162 3161 3160 3160 3160 3160 3159
3139 3143 3139 3137 3136 3137 3139 3140 3141 3143 3144 3143 3145 3147 3148 3146 3148 3149 3152 3155 3156 3155 3156 3157 3157 3159 3160 3160 3160 3161 3161 3162 3162 3163 3163 3162 3162 3162 3161 3161 3161 3161 3160 3160 3159 3159 3159 3158 3157
3136 3138 3135 3132 3133 3133 3136 3136 3139 3139 3140 3142 3142 3144 3142 3145 3146 3150 3152 3155 3156 3154 3153 3154 3156 3157 3158 3159 3159 3159 3160 3160 3160 3160 3161 3160 3159 3159 3159 3159 3159 3158 3158 3158 3157 3157 3157 3156 3155
3133 3132 3127 3127 3130 3132 3134 3135 3135 3136 3138 3138 3141 3142 3137 3137 3143 3148 3151 3154 3154 3155 3152 3152 3153 3154 3155 3155 3156 3157 3157 3158 3158 3158 3158 3157 3156 3156 3156 3157 3156 3156 3155 3155 3154 3154 3154 3153 3152
3123 3121 3118 3125 3127 3127 3129 3130 3131 3134 3134 3135 3137 3134 3135 3138 3142 3145 3148 3151 3152 3152 3152 3150 3150 3151 3151 3152 3152 3154 3154 3154 3154 3155 3155 3154 3153 3152 3152 3153 3152 3152 3151 3151 3152 3152 3152 3150 3147
3115 3107 3116 3118 3123 3125 3124 3125 3128 3127 3128 3132 3133 3135 3135 3136 3140 3144 3145 3148 3148 3149 3150 3151 3146 3148 3148 3149 3148 3149 3151 3151 3151 3151 3151 3151 3149 3147 3148 3148 3148 3147 3147 3147 3146 3145 3146 3147 3145
3111 3104 3109 3111 3116 3119 3118 3121 3120 3123 3124 3128 3131 3133 3133 3132 3135 3136 3138 3143 3147 3146 3146 3146 3143 3145 3145 3145 3145 3145 3145 3146 3147 3148 3148 3146 3145 3143 3143 3142 3142 3143 3143 3142 3142 3142 3143 3143 3142
3098 3100 3103 3106 3110 3109 3112 3110 3113 3115 3120 3123 3124 3125 3126 3129 3131 3134 3135 3135 3135 3136 3138 3139 3138 3138 3142 3142 3141 3142 3142 3141 3142 3142 3142 3141 3138 3138 3138 3137 3136 3137 3137 3138 3137 3138 3138 3138 3137
3094 3095 3095 3097 3101 3103 3103 3101 3109 3104 3113 3116 3118 3119 3122 3123 3124 3126 3129 3129 3130 3131 3133 3135 3133 3130 3135 3136 3136 3136 3137 3137 3137 3136 3134 3134 3133 3132 3132 3133 3132 3129 3130 3130 3132 3131 3130 3131 3131
3085 3086 3086 3086 3090 3090 3097 3093 3093 3098 3105 3107 3111 3113 3115 3116 3119 3121 3122 3122 3124 3126 3127 3127 3127 3124 3126 3129 3129 3130 3131 3132 3131 3130 3129 3125 3127 3127 3127 3127 3126 3124 3124 3125 3125 3126 3126 3125 3126
3078 3079 3074 3066 3082 3081 3091 3077 3080 3090 3095 3097 3102 3105 3107 3110 3113 3115 3117 3116 3116 3117 3117 3118 3120 3119 3119 3120 3122 3123 3125 3125 3125 3124 3121 3120 3120 3121 3121 3120 3119 3119 3118 3120 3120 3121 3120 3121 3121
3070 3062 3062 3062 3072 3076 3080 3069 3071 3082 3084 3088 3092 3096 3099 3101 3105 3107 3109 3110 3108 3107 3108 3109 3112 3114 3112 3112 3114 3115 3117 3117 3118 3117 3115 3113 3114 3115 3115 3114 3113 3113 3112 3113 3115 3118 3117 3115 3115
3058 3060 3058 3057 3062 3067 3068 3062 3062 3069 3073 3077 3082 3085 3089 3091 3095 3099 3100 3097 3097 3099 3099 3101 3103 3105 3106 3105 3105 3107 3107 3110 3110 3109 3108 3107 3107 3107 3107 3107 3108 3107 3107 3107 3110 3111 3110 3110 3111
3058 3056 3049 3048 3054 3058 3056 3054 3053 3061 3065 3067 3071 3076 3078 3081 3087 3091 3090 3088 3088 3089 3089 3091 3093 3096 3096 3096 3097 3098 3100 3101 3100 3101 3101 3101 3100 3101 3101 3101 3102 3102 3101 3103 3104 3105 3104 3106 3104
3053 3050 3044 3047 3047 3050 3046 3046 3044 3050 3054 3058 3062 3065 3068 3071 3074 3077 3077 3077 3078 3079 3079 3082 3083 3084 3085 3086 3088 3089 3090 3091 3091 3093 3094 3095 3095 3094 3095 3095 3095 3096 3096 3098 3099 3100 3099 3097 3099
3048 3046 3043 3043 3045 3045 3042 3038 3035 3041 3045 3048 3051 3054 3057 3060 3063 3066 3066 3065 3067 3066 3067 3070 3072 3074 3075 3078 3079 3080 3082 3084 3083 3085 3088 3089 3089 3089 3089 3090 3089 3091 3091 3093 3093 3094 3093 3093 3094
3041 3042 3040 3039 3040 3035 3035 3025 3029 3033 3035 3039 3041 3044 3046 3048 3050 3051 3052 3052 3053 3055 3057 3058 3061 3064 3066 3068 3070 3073 3077 3078 3079 3080 3081 3083 3083 3084 3084 3084 3084 3086 3087 3087 3088 3088 3088 3088 3089
3036 3036 3035 3034 3033 3031 3028 3024 3017 3025 3025 3029 3032 3034 3034 3037 3039 3040 3044 3046 3046 3047 3047 3049 3052 3054 3057 3059 3063 3066 3070 3072 3073 3074 3075 3077 3078 3079 3079 3079 3080 3081 3082 3083 3082 3083 3083 3083 3083
3033 3031 3029 3027 3025 3017 3018 3018 3010 3017 3021 3022 3025 3027 3029 3031 3032 3033 3036 3036 3037 3039 3040 3041 3043 3046 3050 3053 3056 3060 3063 3065 3066 3068 3071 3071 3072 3073 3074 3074 3075 3076 3077 3077 3078 3078 3078 3077 3077
3029 3028 3023 3019 3014 3007 3015 3011 3008 3013 3018 3018 3018 3020 3020 3023 3025 3025 3026 3029 3030 3030 3032 3033 3036 3040 3044 3047 3050 3054 3057 3059 3060 3063 3065 3065 3067 3068 3069 3070 3071 3071 3072 3073 3073 3073 3072 3072 3072
3023 3024 3020 3013 3006 3003 3005 3002 3001 3007 3008 3009 3010 3012 3014 3016 3017 3017 3019 3021 3025 3025 3026 3027 3029 3034 3039 3042 3045 3048 3050 3052 3053 3056 3058 3060 3062 3063 3064 3065 3066 3067 3068 3068 3068 3067 3067 3067 3067
3019 3017 3019 3017 3014 3007 3005 2997 2998 2999 3004 3006 3007 3008 3009 3010 3010 3011 3014 3016 3017 3021 3021 3023 3025 3029 3033 3037 3040 3042 3044 3046 3049 3051 3053 3056 3057 3059 3060 3061 3061 3062 3063 3063 3062 3061 3063 3062 3063
3015 3015 3016 3017 3006 2999 2993 2982 2979 2990 2996 3001 3002 3005 3005 3004 3004 3005 3008 3010 3012 3015 3018 3020 3023 3026 3030 3033 3035 3038 3040 3043 3045 3048 3050 3052 3054 3055 3056 3057 3058 3058 3058 3058 3058 3058 3058 3059 3060
3007 3010 3012 3010 3008 2998 2979 2976 2972 2979 2989 2997 2998 3000 3000 2997 3001 3001 3002 3004 3008 3011 3015 3018 3021 3024 3027 3030 3032 3035 3038 3041 3042 3045 3046 3048 3050 3051 3052 3053 3054 3054 3054 3054 3055 3055 3055 3056 3057
3006 3006 3009 3012 3000 2992 2989 2978 2971 2975 2976 2992 2997 2997 2995 2988 2989 2993 2998 3004 3006 3008 3012 3015 3019 3022 3025 3028 3031 3034 3036 3038 3040 3042 3044 3045 3046 3047 3048 3049 3049 3050 3050 3051 3052 3053 3053 3053 3053